STARLINK-35931 (66519 NORAD) Tracking and Keplerian Element Data

This shows tracking and keplerian element data for the satellite.

Feedback or suggestion? Click here.




ElementValue
Catalog66519
NameSTARLINK-35931
Epoch Orbit609
Epoch Day354.25003472
Epoch Year2025
RAAN10.1845
Inclination43.0002
Eccentricity0.0001214
Argument of Perigee266.0052
Mean Anonmoly50.96
Mean Motion15.40665794
Decay Rate0.0002006
L11 66519U 25265D 25354.25003472 .00020060 00000+0 48676-3 0 9990
L22 66519 43.0002 10.1845 0001214 266.0052 50.9600 15.40665794 6098



Live tracking and technical data element details for STARLINK-35931 (NORAD 66519). STARLINK-35931 can be tracked NOW for your location showing map with azimuth and elevation plus other details from your city location.







IsCatalogInMostPopularTable: catalog: 66519, numindb: 10
Update: records affected: 1



GetName: 66519 STARLINK-35931

Hit Count: updated at: Tue, 21 Apr 2026 20:41:37 GMT